This is the latest recevied weather packets stored in our database for station/object KB2AHZ. If no packets are shown the sender has not sent any weather packets the latest 10 day(s).
| Time | Temp. | Humidity | Pressure | Rain* | Wind** | Luminosity | Snow |
|---|---|---|---|---|---|---|---|
| 1777925681 | 25° C | 36% | 1013.4 hPa | 0 mm | - | 295 W/m² | - |
| 1777925379 | 25° C | 36% | 1013.6 hPa | 0 mm | - | 305 W/m² | - |
| 1777925075 | 25.56° C | 33% | 1013.6 hPa | 0 mm | - | 284 W/m² | - |
| 1777924772 | 25° C | 35% | 1013.5 hPa | 0 mm | - | 523 W/m² | - |
| 1777924468 | 25° C | 35% | 1013.6 hPa | 0 mm | - | 311 W/m² | - |
| 1777924165 | 26.11° C | 33% | 1013.6 hPa | 0 mm | - | 264 W/m² | - |
| 1777923861 | 25.56° C | 34% | 1013.7 hPa | 0 mm | - | 907 W/m² | - |
| 1777923557 | 25° C | 35% | 1013.7 hPa | 0 mm | - | 410 W/m² | - |
| 1777923254 | 24.44° C | 35% | 1013.9 hPa | 0 mm | - | 696 W/m² | - |
| 1777922953 | 25° C | 33% | 1013.6 hPa | 0 mm | - | 266 W/m² | - |
| 1777922650 | 26.67° C | 31% | 1013.9 hPa | 0 mm | - | 346 W/m² | - |
| 1777922349 | 26.67° C | 33% | 1014 hPa | 0 mm | - | 786 W/m² | - |
| 1777922046 | 26.67° C | 33% | 1013.9 hPa | 0 mm | - | 784 W/m² | - |
| 1777921741 | 26.11° C | 33% | 1013.9 hPa | 0 mm | - | 797 W/m² | - |
| 1777921437 | 26.11° C | 33% | 1014.2 hPa | 0 mm | - | 813 W/m² | - |
| 1777921134 | 25.56° C | 33% | 1014.1 hPa | 0 mm | - | 826 W/m² | - |
| 1777920831 | 25.56° C | 33% | 1014.2 hPa | 0 mm | - | 825 W/m² | - |
| 1777920527 | 25.56° C | 31% | 1014.3 hPa | 0 mm | - | 837 W/m² | - |
| 1777920223 | 25.56° C | 33% | 1014.2 hPa | 0 mm | - | 850 W/m² | - |
| 1777919919 | 25.56° C | 34% | 1014.2 hPa | 0 mm | - | 859 W/m² | - |
| 1777919617 | 25° C | 33% | 1014.3 hPa | 0 mm | - | 868 W/m² | - |
| 1777919314 | 25° C | 32% | 1014.5 hPa | 0 mm | - | 880 W/m² | - |
| 1777919012 | 25.56° C | 31% | 1014.5 hPa | 0 mm | - | 887 W/m² | - |
| 1777918708 | 25.56° C | 33% | 1014.5 hPa | 0 mm | - | 860 W/m² | - |
| 1777918406 | 25° C | 31% | 1014.3 hPa | 0 mm | - | 892 W/m² | - |
* Rain latest hour (hover to see other rain measurements)
** Current wind speed in m/s (hover to see current wind gust speed)